sat.trackr.live / text

‹ back to catalog

STARLINK-35159

NORAD 65461 · 2025-195D

PAYLOAD ACTIVE UNKNOWN

§ Identity

Operator
Country
US
Launch date
2025-09-03
Launch site
AFETR
Launch vehicle
Mass (kg)
RCS (m²)

Purposes: comms

External: N2YO · Heavens-Above · Gunter

§ Orbital elements

Epoch: 2026-05-25T00:57:36.419904Z

Period
93.85 min
Inclination
53.1577°
Eccentricity
0.0000818
Mean motion
15.34396465 rev/d
Perigee alt
462.2 km
Apogee alt
463.3 km
Semi-major
6,840.9 km
B*
6.0380e-4
RAAN
263.5210°
Arg perigee
89.1880°
Mean anomaly
270.9216°
Rev number
4,168

§ Raw data

STARLINK-351591 65461U 25195D   26145.04000486  .00020077  00000+0  60380-3 0  99992 65461  53.1577 263.5210 0000818  89.1880 270.9216 15.34396465 41684

JSON: /api/v1/satellites/65461 · /tle

For live sub-satellite position, see the globe view (requires WebGL).

§ Visibility from observer

Set your observer location to see the next 7 days of passes ≥ 10°. The values pass through the URL so the page stays shareable.

No JS? Fill the form by hand. The geolocation button needs JavaScript.